STARLINK-32892, 62893

Orbit data source: Space-Track

STARLINK-32892, 62893 is a payload satellite owned by SpaceX/Seattle (US) in LEO that was launched on Tue, 04 Feb 2025 UTC via an FALCON 9 launch vehicle from the Air Force Eastern Test Range (AFETR). Payload-class satellites include a variety of spacecraft equipped with specific instruments for various scientific and technological missions. These include communications satellites like Starlink; space stations such as the ISS; scientific satellites like the Hubble; Earth observation satellites from companies like Planet Labs, Umbra, and HawkEye 360; GPS; miniature CubeSats for education and research; and military/defense satellites.

Loading next visibility...
Identifier
62893, 2025-024Q
Orbit
LEO
Country
Flag of USUS
Related business
Manufacturer
SpaceX/Seattle
Mission
Operational Commercial Communications
Bus & Motor
STARLINK V2M, Unknown motor
Mass
730 kg wet, ~700 kg dry
Launch date (UTC)
2025-02-04 (10 months ago)
Launch vehicle
FALCON 9
Launch site
Air Force Eastern Test Range (AFETR)
Object type
Payload
Rocket body
Debris
Shape & HBR
Box + 2 Pan, 17.7 m
Radar Cross Section
33.884 m², Large (>1 m²)

Expand to show TLE details & history
Last TLE update: 1 day ago

TLE from 1 day ago
0 STARLINK-32892
1 62893U 25024Q   25348.29364523  .00016173  00000-0  59587-3 0  9992
2 62893  42.9986  87.8126 0001368 250.9207 109.1497 15.27583247 49203
Epoch: 2025-12-14T07:02Z
TLE epoch observation values (Epoch: 2025-12-14T07:02:50.947Z)
Latitude
-0°
Longitude
-101.10832°
Altitude
483.123 km
Speed
7.625 km/s
True Right ascension
05h 51m 15s
True Declination
0° 00' 00"
Sunlit
Object was in full shadow at epoch
Visualization orbit readout
Latitude
Unknown
Longitude
Unknown
Altitude
Unknown
Speed
Unknown
Apparent Right ascension
Unknown
Apparent Declination
Unknown
Sunlit
N/A
Visualization observer readout
Local Sidereal Time
16:30:51
Azimuth
Unknown
Elevation
Unknown
Doppler factor
Unknown
Orbital elements
Apogee altitude
485.924 km
Perigee altitude
484.046 km
Semi-major axis
6,863.122 km
Eccentricity
0.00014
Inclination
42.9986°
RAAN
87.8126°
Arg. of periapsis
250.9207°
True anomaly
109.16451°
Mean anomaly
109.1497°
Eccentric anomaly
109.1571°
Mean motion
3.81734 °/min
Orbital period
94.31 mins
BSTAR
0.00059587
Loading maneuver chart data...
Computing Atmospheric mass density...
Loading historical data...
Loading historical data...
Loading historical data...
Loading historical data...
Loading historical data...
Loading historical data...
Loading historical data...

Documentation

Showing up to 5 results
|